Location: Kalberh�ni
(46.4610°N, 7.2453°E)
Time: 01:41:47
(UTC+00:00)

Cosmos 2219 Rocket - Visible Passes

Search period start: 23 October 2021 00:00
Search period end: 02 November 2021 00:00
Orbit: 828 x 846 km, 71.0° (Epoch: 22 October)

Date Brightness Start Highest point End Pass type
(mag) Time Alt. Az. Time Alt. Az. Time Alt. Az.
23 Oct 4.0 03:36:07 10° N 03:40:59 28° NE 03:45:50 10° ESE visible
23 Oct 2.3 05:19:44 10° NW 05:25:16 55° WSW 05:30:46 10° S visible
23 Oct 4.3 18:29:48 10° SSE 18:30:02 11° SSE 18:30:02 11° SSE visible
24 Oct 4.1 03:19:45 10° N 03:24:31 27° NE 03:29:16 10° ESE visible
24 Oct 2.3 05:03:18 10° NNW 05:08:52 60° WSW 05:14:24 10° S visible
24 Oct 3.6 18:13:33 10° SSE 18:15:45 20° SE 18:15:45 20° SE visible
24 Oct 4.4 19:56:25 10° SW 19:57:34 16° SW 19:57:34 16° SW visible
25 Oct 4.2 03:03:23 10° N 03:08:03 25° NE 03:12:42 10° ESE visible
25 Oct 2.2 04:46:51 10° NNW 04:52:28 64° WSW 04:58:03 10° SSE visible
25 Oct 3.1 17:57:19 10° SSE 18:01:22 25° ESE 18:01:22 25° ESE visible
25 Oct 3.5 19:39:57 10° SW 19:43:11 34° WSW 19:43:11 34° WSW visible
26 Oct 4.2 02:47:06 10° N 02:51:35 24° NE 02:56:07 10° E visible
26 Oct 2.1 04:30:26 10° NNW 04:36:03 69° WSW 04:41:41 10° SSE visible
26 Oct 3.2 17:41:06 10° SSE 17:45:26 24° ESE 17:46:51 21° E visible
26 Oct 2.7 19:23:28 10° SW 19:28:40 57° WNW 19:28:40 57° WNW visible
27 Oct 4.3 02:32:09 16° N 02:35:06 23° NE 02:39:31 10° E visible
27 Oct 2.1 04:14:00 10° NNW 04:19:39 74° WSW 04:25:18 10° SSE visible
27 Oct 3.3 17:24:53 10° SSE 17:29:04 22° E 17:32:08 14° ENE visible
27 Oct 2.5 19:07:00 10° SW 19:12:32 61° WNW 19:13:56 47° N visible
27 Oct 5.0 20:54:46 10° WNW 20:55:44 12° WNW 20:55:44 12° WNW visible
28 Oct 4.3 02:17:26 20° NNE 02:18:38 22° NE 02:22:55 10° E visible
28 Oct 2.1 03:59:15 20° NNW 04:03:15 79° WSW 04:08:55 10° SSE visible
28 Oct 3.4 17:08:43 10° SSE 17:12:43 20° E 17:16:44 10° NE visible
28 Oct 2.4 18:50:34 10° SW 18:56:07 66° WNW 18:58:59 29° NNE visible
28 Oct 4.8 20:38:03 10° WNW 20:40:45 15° NW 20:40:45 15° NW visible
29 Oct 4.5 02:02:56 20° NE 02:02:56 20° NE 02:06:19 10° E visible
29 Oct 2.0 03:44:46 41° NNW 03:46:51 85° WSW 03:52:31 10° SSE visible
29 Oct 3.8 05:27:21 10° WNW 05:29:54 13° W 05:32:26 10° WSW visible
29 Oct 3.5 16:52:34 10° SE 16:56:22 19° E 17:00:11 10° ENE visible
29 Oct 2.4 18:34:07 10° SW 18:39:42 71° WNW 18:43:48 19° NNE visible
29 Oct 4.7 20:21:22 10° WNW 20:24:44 16° NW 20:25:34 15° NNW visible
30 Oct 4.8 01:48:33 14° ENE 01:48:33 14° ENE 01:49:41 10° E visible
30 Oct 2.1 03:30:23 88° NNW 03:30:26 90° ENE 03:36:07 10° SSE visible
30 Oct 3.7 05:12:13 13° W 05:13:33 14° W 05:16:28 10° SW visible
30 Oct 2.3 18:17:41 10° SSW 18:23:16 76° WNW 18:28:25 13° NNE visible
30 Oct 4.6 20:04:42 10° W 20:08:14 17° NW 20:10:10 14° NNW visible
31 Oct 3.0 03:16:05 41° SSE 03:16:05 41° SSE 03:19:43 10° SSE visible
31 Oct 3.7 04:57:56 15° WSW 04:57:56 15° WSW 05:00:26 10° SW visible
31 Oct 2.2 18:01:15 10° SSW 18:06:51 81° WNW 18:12:31 10° NNE visible
31 Oct 4.6 19:48:03 10° W 19:51:45 18° NW 19:54:36 13° N visible
01 Nov 4.1 03:01:47 19° SSE 03:01:47 19° SSE 03:03:17 10° SSE visible
01 Nov 4.1 04:43:38 12° SW 04:43:38 12° SW 04:44:21 10° SW visible
01 Nov 2.2 17:44:50 10° SSW 17:50:26 86° WNW 17:56:07 10° NNE visible
01 Nov 4.5 19:31:24 10° W 19:35:16 19° NW 19:38:55 11° N visible
